COSMOS 1570

Satellite information

Favourite Embed

Satellite Type and Status

PAYLOADIN ORBIT

Key statistics

Satellite COSMOS 1570 at a glance.

Uptime

14942

Days in orbit

Revolutions

≈ 14.3

Per day

Orbit

LEO

Low Earth Orbit

Inclination

74.1

Latest

Satellite identification and parameters

Extended collection of information and parameters for COSMOS 1570.

Object identification

Identified? True

Debris? False

Object name: COSMOS 1570

International designator: 1984-056A

Object number (NORAD): 15031

Object ID (CCSDS): 15031

Country: COMMONWEALTH OF INDEPENDENT STATES (CIS)

Current information (Y/N): Y

RCS size: LARGE

Orbital parameters

Period: 100.522 minutes

Inclination: 74.0662 deg

SMA: 7161.458 km

Apoapsis: 791.906 km

Periapsis: 774.741 km

RAAN: 312.8713 deg

Eccentricy: 0.0011984

Argument of periapsis: 125.1141 deg

Mean anomaly: 245.9957 deg

Mean motion: 14.32519581 rev/day

Mean motion (dot): 0.0000022 rev/day2

B* drag term: 0.00009071 1/REarth

Two-line elements (TLE)

Creation date: May 6, 2025, 3:54 a.m.

Reference frame: TEME

Reference center: EARTH

Epoch: May 5, 2025, 7:06 p.m. UTC

TLE line 0: 0 COSMOS 1570

TLE line 1: 1 15031U 84056A 25125.79592852 .00000220 00000-0 90710-4 0 9990

TLE line 2: 2 15031 74.0662 312.8713 0011984 125.1141 245.9957 14.32519581136099

Live tracking on map

Real-time ground track for satellite COSMOS 1570.

In-orbit conjunctions

A list of the most updated potential collisions computed for object COSMOS 1570.

Target Orbit TCA Probability of collision Miss distance Type
DMSP 5D-3 F19 DEB SSO 2025-03-20 17:11:29 0.0002190507 443.0 (m) DEBRIS
CZ-6A DEB LEO 2025-03-11 18:42:57 0.0002197535 226.0 (m) DEBRIS
FENGYUN 1C DEB SSO 2025-01-28 16:55:37 0.0001051224 487.0 (m) DEBRIS
FENGYUN 1C DEB SSO 2024-12-13 18:38:14 0.0001055585 654.0 (m) DEBRIS
CZ-6A DEB LEO 2024-10-23 14:53:48 0.000142551 210.0 (m) DEBRIS

Associated space launch

Military communications satellite

COSMOS 1570 was lifted into orbit during the mission ‘Kosmos-3M | Strela-2M 35’, on board a Kosmos-3M space rocket.

The launch took place on June 8, 1984, 11:28 a.m. from 132/1 (132L).

For more information about the launch, click the button.

Launch to space Kosmos-3M | Strela-2M 35
Kosmos-3M | Strela-2M 35

Agency: N/A

Status: Launch Successful

Launch date: June 8, 1984, 11:28 a.m. UTC

Rocket: Kosmos-3M

Launch pad: 132/1 (132L)

Location: Plesetsk Cosmodrome, Russian Federation

...

Latest news about this satellite

There are no fresh news available about this satellite. Check back as we update our databases every day.


Newsletter sign-up

Weekly statistics, charts and insights to help you stay on top of the space industry.